Saint Simons Island, GA

11:29 AM EDT on April 23, 2018 (GMT -0400)
McKinnon

Weather History for KSSI - January, 2013

Change the Weather History Date:

Friday, January 11, 2013

  Actual Average Record
Temperature  
Mean Temperature 65 °F 51 °F  
Max Temperature 72 °F 60 °F 81 °F (1949)
Min Temperature 58 °F 42 °F 16 °F (1982)
Degree Days  
Heating Degree Days 0 14  
Month to date heating degree days 84 154  
Since 1 July heating degree days 554 685  
Cooling Degree Days 0 0  
Month to date cooling degree days 0 0  
Year to date cooling degree days 0 0  
Growing Degree Days 14 (Base 50)    
Moisture  
Dew Point 62 °F    
Average Humidity 89    
Maximum Humidity 100    
Minimum Humidity 78    
Precipitation  
Precipitation 0.00 in 0.11 in 2.49 in (1991)
Month to date precipitation 0.21 1.01  
Year to date precipitation 0.21 1.01  
Snow  
Snow 0.00 in - 0.00 in ()
Month to date snowfall 0.0  
Since 1 July snowfall 0.0  
Snow Depth 0.00 in    
Sea Level Pressure  
Sea Level Pressure 30.23 in    
Wind  
Wind Speed 5 mph (SSE)    
Max Wind Speed 12 mph    
Max Gust Speed 17 mph    
Visibility 6 miles    
Events Fog    
T = Trace of Precipitation, MM = Missing Value Source: NWS Daily Summary

Daily Weather History Graph

Daily Weather History Graph

Search for Another Location

Airport or City:

Astronomy

Jan. 11, 2013 Rise Set
Actual Time 7:25 AM EST 5:42 PM EST
Civil Twilight 6:58 AM EST 6:08 PM EST
Nautical Twilight 6:28 AM EST 6:38 PM EST
Astronomical Twilight 5:59 AM EST 7:07 PM EST
Moon 6:59 AM EST (1/11) 5:54 PM EST (1/11)
Length of Visible Light 11h 10m
Length of Day
10h 17m
Waning Crescent, 0% of the Moon is Illuminated
Jan 11
Waning Crescent
Jan 11
New
Jan 18
First Quarter
Jan 26
Full
Feb 3
Last Quarter

Hourly Weather History & Observations

Time (EST) Temp. Dew Point Humidity Pressure Visibility Wind Dir Wind Speed Gust Speed Precip Events Conditions
12:22 AM 64.4 °F 62.6 °F 94% 30.30 in 10.0 mi Calm Calm - N/A   Overcast
12:53 AM 62.1 °F 61.0 °F 96% 30.29 in 9.0 mi Calm Calm - N/A   Mostly Cloudy
1:53 AM 62.1 °F 60.1 °F 93% 30.29 in 10.0 mi Calm Calm - N/A   Overcast
2:53 AM 62.1 °F 60.1 °F 93% 30.28 in 9.0 mi Calm Calm - N/A   Mostly Cloudy
3:53 AM 59.0 °F 57.9 °F 96% 30.26 in 7.0 mi Calm Calm - N/A   Clear
4:53 AM 57.9 °F 57.9 °F 100% 30.24 in 4.0 mi ESE 4.6 mph - N/A   Partly Cloudy
5:38 AM 59.0 °F 57.2 °F 94% 30.23 in 2.5 mi ESE 4.6 mph - N/A   Scattered Clouds
5:53 AM 59.0 °F 59.0 °F 100% 30.23 in 3.0 mi ESE 3.5 mph - N/A   Scattered Clouds
6:53 AM 60.1 °F 60.1 °F 100% 30.25 in 7.0 mi Calm Calm - N/A   Clear
7:31 AM 60.8 °F 59.0 °F 94% 30.25 in 4.0 mi SSE 3.5 mph - N/A   Scattered Clouds
7:48 AM 60.8 °F 60.8 °F 100% 30.26 in 2.0 mi SSE 3.5 mph - N/A   Mostly Cloudy
7:51 AM 60.8 °F 60.8 °F 100% 30.26 in 1.0 mi South 4.6 mph - N/A   Mist
7:53 AM 61.0 °F 60.1 °F 97% 30.26 in 0.8 mi SSE 3.5 mph - N/A   Mist
8:07 AM 62.6 °F 60.8 °F 94% 30.26 in 0.5 mi SSE 3.5 mph - N/A Fog Fog
8:13 AM 62.6 °F 60.8 °F 94% 30.26 in 2.0 mi Variable 4.6 mph - N/A   Overcast
8:21 AM 62.6 °F 62.6 °F 100% 30.26 in 5.0 mi SSE 5.8 mph - N/A   Mostly Cloudy
8:30 AM 62.6 °F 62.6 °F 100% 30.26 in 7.0 mi South 5.8 mph - N/A   Scattered Clouds
8:53 AM 63.0 °F 63.0 °F 100% 30.26 in 8.0 mi South 5.8 mph - N/A   Partly Cloudy
9:08 AM 62.6 °F 62.6 °F 100% 30.26 in 8.0 mi SSE 6.9 mph - N/A   Mostly Cloudy
9:15 AM 64.4 °F 62.6 °F 94% 30.26 in 9.0 mi South 5.8 mph - N/A   Scattered Clouds
9:53 AM 66.0 °F 64.9 °F 96% 30.27 in 10.0 mi South 6.9 mph - N/A   Clear
10:53 AM 66.9 °F 64.9 °F 93% 30.27 in 10.0 mi SSW 5.8 mph - N/A   Clear
11:53 AM 69.1 °F 64.0 °F 84% 30.25 in 10.0 mi South 3.5 mph - N/A   Clear
12:53 PM 72.0 °F 64.0 °F 76% 30.22 in 10.0 mi ESE 3.5 mph - N/A   Clear
1:53 PM 71.1 °F 64.0 °F 78% 30.20 in 10.0 mi ESE 11.5 mph - N/A   Clear
2:53 PM 69.1 °F 63.0 °F 81% 30.19 in 10.0 mi SE 8.1 mph - N/A   Clear
3:53 PM 69.1 °F 64.9 °F 87% 30.19 in 10.0 mi SSE 10.4 mph - N/A   Clear
4:53 PM 66.9 °F 64.0 °F 90% 30.19 in 10.0 mi SSE 9.2 mph - N/A   Clear
5:38 PM 64.4 °F 62.6 °F 94% 30.18 in 6.0 mi SSE 6.9 mph - N/A   Scattered Clouds
5:49 PM 62.6 °F 62.6 °F 100% 30.19 in 4.0 mi SSE 5.8 mph - N/A   Mostly Cloudy
5:53 PM 64.0 °F 63.0 °F 96% 30.19 in 3.0 mi SSE 5.8 mph - N/A   Mostly Cloudy
6:02 PM 64.4 °F 62.6 °F 94% 30.19 in 2.5 mi SSE 4.6 mph - N/A   Overcast
6:16 PM 64.4 °F 62.6 °F 94% 30.19 in 1.0 mi SSE 6.9 mph - N/A   Mist
6:23 PM 64.4 °F 62.6 °F 94% 30.19 in 0.8 mi SSE 6.9 mph - N/A   Mist
6:34 PM 64.4 °F 62.6 °F 94% 30.19 in 1.0 mi SSE 6.9 mph - N/A   Mist
6:48 PM 64.4 °F 62.6 °F 94% 30.19 in 0.5 mi SSE 8.1 mph - N/A Fog Fog
6:53 PM 64.0 °F 63.0 °F 96% 30.19 in 0.5 mi SSE 6.9 mph - N/A Fog Fog
7:29 PM 62.6 °F 62.6 °F 100% 30.20 in 1.5 mi SSE 4.6 mph - N/A   Overcast
7:53 PM 63.0 °F 62.1 °F 97% 30.20 in 0.5 mi SSE 4.6 mph - N/A Fog Fog
8:11 PM 62.6 °F 62.6 °F 100% 30.20 in 0.2 mi SSE 4.6 mph - N/A Fog Fog
8:22 PM 62.6 °F 62.6 °F 100% 30.20 in 1.0 mi SSE 4.6 mph - N/A   Mist
8:26 PM 62.6 °F 62.6 °F 100% 30.20 in 3.0 mi SSE 5.8 mph - N/A   Mostly Cloudy
8:42 PM 62.6 °F 62.6 °F 100% 30.20 in 9.0 mi South 3.5 mph - N/A   Scattered Clouds
8:53 PM 63.0 °F 62.1 °F 97% 30.20 in 9.0 mi SSE 3.5 mph - N/A   Clear
9:53 PM 64.0 °F 63.0 °F 96% 30.21 in 9.0 mi Variable 4.6 mph - N/A   Clear
10:53 PM 64.0 °F 63.0 °F 96% 30.20 in 10.0 mi South 6.9 mph - N/A   Clear
11:53 PM 64.4 °F 62.6 °F 94% 30.20 in 10.0 mi South 4.6 mph - N/A   Clear